Regional Weather Roundup
Issued by NWS

Home | Current Version | Previous Version | Text Only | Print | Product List | Glossary Off
Versions: 1 2 3 4 5 6 7 8 9 10 11 12 13 14 15 16 17 18 19 20 21 22 23 24 25 26 27 28 29 30 31 32 33 34 35 36 37 38 39 40 41 42 43 44 45 46 47 48 49 50

000
ASUS43 KLMK 312102
RWRKY
KENTUCKY REGIONAL WEATHER ROUNDUP
NATIONAL WEATHER SERVICE LOUISVILLE KY
500 PM EDT MON AUG 31 2015

NOTE "FAIR" INDICATES FEW OR NO CLOUDS BELOW 12,000 FEET
WITH NO SIGNIFICANT WEATHER AND/OR OBSTRUCTIONS TO VISIBILITY.

KYZ001>023-026-027-061>063-070>075-312200-
WESTERN AND SOUTH CENTRAL KENTUCKY

CITY           SKY/WX    TMP DP  RH WIND       PRES   REMARKS
PADUCAH        FAIR      87  68  52 S7        30.05F HX  90
HENDERSON      FAIR      88  66  48 SW5       30.05F HX  90
OWENSBORO      FAIR      87  66  49 S7        30.07F
HOPKINSVILLE   PTSUNNY   85  66  52 N3        30.07F
BOWLING GREEN  FAIR      89  61  38 E3        30.08F
GLASGOW        FAIR      83  63  50 N3        30.09F
$$

KYZ024-025-028>034-038-045-046-053-312200-
NORTH CENTRAL KENTUCKY

CITY           SKY/WX    TMP DP  RH WIND       PRES   REMARKS
LOUISVILLE/SDF PTSUNNY   87  63  44 SE7G18    30.06F
LOUISVILLE/LOU FAIR      88  62  41 W3        30.07F
FORT KNOX      FAIR      87  64  46 S6        30.07F
$$

KYZ035>037-039>044-047>052-055>060-089>105-312200-
NORTHEAST KENTUCKY

CITY           SKY/WX    TMP DP  RH WIND       PRES   REMARKS
LEXINGTON      FAIR      86  61  42 NW5       30.09F
COVINGTON      FAIR      85  66  53 SW7       30.07F
FRANKFORT      FAIR      85  61  44 W7        30.08F
$$

KYZ054-064>069-076>088-106>120-312200-
SOUTHEAST KENTUCKY

CITY           SKY/WX    TMP DP  RH WIND       PRES   REMARKS
JACKSON        FAIR      84  62  47 CALM      30.11F
LONDON         FAIR      86  60  41 CALM      30.10F
SOMERSET       NOT AVBL
MIDDLESBORO    PTSUNNY   85  65  51 CALM      30.10F
MONTICELLO     FAIR      87  65  47 CALM      30.12F
$$




USA.gov is the U.S. government's official web portal to all federal, state and local government web resources and services.